Stations météo

réclame
Mon MeteoGroup
Llerena, Espagne (8336): Température de l'air & dewpoint: 13.08.2018 17:00:00 - 19.08.2018 17:00:00 (CEST)Llerena, Espagne (8336): Vitesse du vent & gusts: 13.08.2018 17:00:00 - 19.08.2018 17:00:00 (CEST)Llerena, Espagne (8336): Direction du vent: 13.08.2018 17:00:00 - 19.08.2018 17:00:00 (CEST)Llerena, Espagne (8336): reduced air pressure: 13.08.2018 17:00:00 - 19.08.2018 17:00:00 (CEST)Llerena, Espagne (8336): visibility: 13.08.2018 17:00:00 - 19.08.2018 17:00:00 (CEST)Llerena, Espagne (8336): Ensoleillement: 13.08.2018 17:00:00 - 19.08.2018 17:00:00 (CEST)Llerena, Espagne (8336): Quantités de précipitations: 13.08.2018 17:00:00 - 19.08.2018 17:00:00 (CEST)
Date & Time tt [°C] td [°C] ff [km/h] ff [knt] fx [km/h] fx [knt] dd ppp [hPa] vv [km] sd [min] rr [mm]
19.08.2018 17:00:00 33,7 9,7 10 6 34 18 ESE 1012,5 20 40 0,0
19.08.2018 16:00:00 34,1 9,3 13 7 32 18 SE 1012,7 20 56 0,0
19.08.2018 15:00:00 33,3 9,3 18 10 29 16 E 1013,3 20 57 0,0
19.08.2018 14:00:00 33,5 9,6 14 7 32 17 ESE 1013,5 20 60 -
19.08.2018 13:00:00 32,6 9,4 18 10 38 20 SE 1014,2 13 60 0,0
19.08.2018 12:00:00 31,5 9,0 21 11 33 18 SE 1014,6 20 60 0,0
19.08.2018 11:00:00 29,6 10,2 25 13 45 24 SE 1014,7 20 60 0,0
19.08.2018 10:00:00 26,7 10,4 36 19 51 27 S 1014,9 19 60 0,0
19.08.2018 09:00:00 25,3 10,8 27 15 41 22 S 1015,1 18 56 0,0
19.08.2018 08:00:00 23,4 10,8 26 14 35 19 S 1015,2 20 0 -
19.08.2018 07:00:00 22,7 12,3 6 4 26 14 E 1015,0 12 0 0,0
19.08.2018 06:00:00 22,7 12,3 14 8 28 15 ESE 1014,9 18 0 0,0
19.08.2018 05:00:00 23,0 9,8 7 4 31 17 E 1015,0 17 0 0,0
19.08.2018 04:00:00 22,5 8,5 7 4 9 5 ESE 1015,1 20 0 0,0
19.08.2018 03:00:00 25,0 8,0 4 2 21 11 ESE 1014,6 19 0 0,0
19.08.2018 02:00:00 26,6 8,1 20 11 26 14 S 1013,9 20 0 -
19.08.2018 01:00:00 26,8 7,7 19 10 24 13 S 1014,0 20 0 0,0
19.08.2018 00:00:00 27,5 8,9 10 5 21 11 S 1014,1 20 0 0,0
18.08.2018 23:00:00 29,7 9,3 8 4 26 14 E 1013,5 19 0 0,0
18.08.2018 22:00:00 30,0 8,4 16 8 26 14 N 1012,9 17 0 0,0
18.08.2018 21:00:00 30,9 9,2 5 3 11 6 S 1011,8 17 0 0,0
18.08.2018 20:00:00 32,8 8,3 5 3 11 6 NW 1011,0 18 8 -
18.08.2018 19:00:00 - - - - - - - - - - -
18.08.2018 18:00:00 36,0 8,8 9 5 17 9 W 1010,5 20 60 0,0
18.08.2018 17:00:00 35,5 9,8 9 5 29 16 WSW 1011,0 13 38 0,0
18.08.2018 16:00:00 33,9 9,2 11 6 26 14 N 1011,8 20 37 0,0
18.08.2018 15:00:00 31,7 10,4 7 4 28 15 ENE 1013,0 20 38 0,0
18.08.2018 14:00:00 33,0 10,4 12 7 29 16 ESE 1013,1 15 56 -
18.08.2018 13:00:00 32,2 10,3 13 7 27 14 ESE 1013,8 15 60 0,0
18.08.2018 12:00:00 31,5 7,8 11 6 25 14 SE 1014,2 19 60 0,0
18.08.2018 11:00:00 30,1 8,5 8 4 16 8 SE 1014,3 16 60 0,0
18.08.2018 10:00:00 28,3 9,6 6 3 15 8 W 1014,5 17 60 0,0
18.08.2018 09:00:00 25,6 10,6 13 7 17 9 ESE 1014,8 11 53 0,0
18.08.2018 08:00:00 22,1 11,4 9 5 16 8 ESE 1015,4 11 0 -
18.08.2018 07:00:00 20,7 11,1 6 4 8 4 SE 1015,4 16 0 0,0
18.08.2018 06:00:00 22,0 10,2 2 1 13 7 ENE 1015,1 16 0 0,0
18.08.2018 05:00:00 22,5 8,9 9 5 16 9 N 1015,1 17 0 0,0
18.08.2018 04:00:00 23,2 9,2 11 6 19 10 N 1014,9 17 0 0,0
18.08.2018 03:00:00 23,6 8,8 13 7 17 9 N 1015,1 15 0 0,0
18.08.2018 02:00:00 23,6 8,8 9 5 18 10 N 1015,1 19 0 -
18.08.2018 01:00:00 23,6 9,9 6 4 18 10 NW 1015,3 17 0 0,0
18.08.2018 00:00:00 24,1 10,4 8 4 20 11 N 1015,1 17 0 0,0
17.08.2018 23:00:00 25,5 10,9 12 6 22 12 NNE 1014,6 18 0 0,0
17.08.2018 22:00:00 26,8 10,5 19 10 25 14 N 1013,5 20 0 0,0
17.08.2018 21:00:00 29,2 10,8 18 10 29 15 N 1012,5 17 0 0,0
17.08.2018 20:00:00 30,0 11,0 14 8 27 14 NW 1011,9 18 0 -
17.08.2018 19:00:00 31,0 11,3 11 6 23 12 WSW 1011,4 15 0 0,0
17.08.2018 18:00:00 32,2 10,3 8 5 22 12 NW 1011,2 14 22 0,0
17.08.2018 17:00:00 34,8 10,6 6 3 27 15 W 1011,0 20 58 0,0
17.08.2018 16:00:00 33,0 11,0 7 4 25 13 E 1012,1 20 48 0,0
17.08.2018 15:00:00 32,8 11,9 6 3 30 16 NE 1013,0 16 55 0,0
17.08.2018 14:00:00 32,6 12,2 10 5 20 11 NW 1013,2 16 60 -
17.08.2018 13:00:00 30,6 13,0 8 4 19 11 NW 1013,9 16 60 0,0
17.08.2018 12:00:00 29,9 13,7 10 5 16 9 W 1014,3 12 60 0,0
17.08.2018 11:00:00 27,3 14,3 10 5 19 10 S 1014,5 15 60 0,0
17.08.2018 10:00:00 25,7 14,5 6 3 27 14 W 1014,5 16 60 0,0
17.08.2018 09:00:00 22,1 13,9 9 5 30 16 ESE 1015,2 16 56 0,0
17.08.2018 08:00:00 20,7 14,1 17 9 25 13 WSW 1015,2 15 0 -
17.08.2018 07:00:00 20,5 14,1 18 10 24 13 SW 1014,8 14 0 0,0
17.08.2018 06:00:00 20,7 14,3 12 7 17 9 WSW 1014,9 15 0 0,0
17.08.2018 05:00:00 19,8 14,1 8 4 28 15 ESE 1015,4 14 0 0,0
17.08.2018 04:00:00 20,5 13,5 10 5 25 13 SE 1016,0 14 0 0,0
17.08.2018 03:00:00 21,3 13,9 13 7 19 10 SSW 1015,6 16 0 0,0
17.08.2018 02:00:00 22,3 13,9 14 7 27 14 WSW 1015,8 16 0 -
17.08.2018 01:00:00 23,0 13,8 14 8 25 13 WSW 1015,6 18 0 0,0
17.08.2018 00:00:00 24,1 13,7 18 10 24 13 SW 1014,6 18 0 0,0
16.08.2018 23:00:00 24,5 13,7 14 8 23 13 SW 1014,1 16 0 0,0
16.08.2018 22:00:00 23,7 12,3 14 8 26 14 SW 1013,8 20 0 0,0
16.08.2018 21:00:00 22,1 15,0 20 11 36 19 WSW 1014,1 20 0 0,0
16.08.2018 20:00:00 - - - - - - - - - - -
16.08.2018 19:00:00 32,2 10,9 16 9 29 16 SSW 1010,9 18 60 0,0
16.08.2018 18:00:00 32,7 8,9 9 5 24 13 WSW 1011,0 20 60 0,0
16.08.2018 17:00:00 32,9 6,2 11 6 22 12 W 1011,4 20 60 0,0
16.08.2018 16:00:00 30,6 7,1 6 3 20 11 ENE 1012,7 18 60 0,0
16.08.2018 15:00:00 30,6 10,0 8 4 29 15 NW 1013,4 20 60 0,0
16.08.2018 14:00:00 29,4 11,4 16 9 30 16 SW 1013,9 17 60 -
16.08.2018 13:00:00 27,9 13,5 18 10 30 16 SSW 1014,7 20 60 0,0
16.08.2018 12:00:00 26,5 14,2 22 12 30 16 S 1015,1 20 60 0,0
16.08.2018 11:00:00 25,5 14,3 19 11 26 14 S 1014,9 17 60 0,0
16.08.2018 10:00:00 25,3 13,9 10 5 21 12 S 1014,7 20 60 0,0
16.08.2018 09:00:00 21,4 9,3 14 8 21 11 SW 1015,7 15 60 0,0
16.08.2018 08:00:00 19,1 7,6 9 5 19 10 S 1016,1 20 9 -
16.08.2018 07:00:00 19,1 6,5 9 5 37 20 SSW 1016,0 20 0 0,0
16.08.2018 06:00:00 19,1 8,1 16 9 22 12 SW 1015,9 20 0 0,0
16.08.2018 05:00:00 20,0 6,4 8 5 25 13 SSW 1015,9 20 0 0,0
16.08.2018 04:00:00 21,1 7,3 19 10 32 17 SW 1015,6 20 0 0,0
16.08.2018 03:00:00 21,5 8,8 23 12 36 19 SW 1015,3 20 0 0,0
16.08.2018 02:00:00 22,1 7,8 24 13 36 19 SW 1015,1 20 0 -
16.08.2018 01:00:00 23,0 5,8 27 15 37 20 SW 1014,9 20 0 0,0
16.08.2018 00:00:00 22,7 7,3 26 14 34 18 SW 1014,9 20 0 0,0
15.08.2018 23:00:00 23,7 7,3 23 13 33 18 SW 1014,8 20 0 0,0
15.08.2018 22:00:00 25,2 8,3 20 11 35 19 SW 1013,7 20 0 0,0
15.08.2018 21:00:00 27,2 8,1 21 12 34 18 SSW 1012,8 20 49 0,0
15.08.2018 20:00:00 29,9 7,1 19 10 30 16 SSW 1012,1 20 60 -
15.08.2018 19:00:00 31,8 6,1 13 7 29 15 SW 1011,9 20 60 0,0
15.08.2018 18:00:00 33,3 3,2 15 8 32 17 WSW 1011,7 20 60 0,0
15.08.2018 17:00:00 33,2 3,0 16 9 33 18 WSW 1011,9 20 60 0,0
15.08.2018 16:00:00 33,1 3,9 15 8 28 15 SSW 1012,3 17 60 0,0
15.08.2018 15:00:00 32,6 2,7 16 9 32 17 SSW 1012,9 20 60 0,0
15.08.2018 14:00:00 31,4 1,7 20 11 35 19 SW 1013,5 20 60 -
15.08.2018 13:00:00 30,3 -1,2 24 13 40 22 SSW 1014,2 20 60 0,0
15.08.2018 12:00:00 29,4 -3,0 21 11 32 18 SSW 1014,4 20 60 0,0
15.08.2018 11:00:00 28,8 5,6 10 5 23 12 S 1014,2 19 60 0,0
15.08.2018 10:00:00 28,2 6,8 4 2 23 13 S 1014,0 20 60 0,0
15.08.2018 09:00:00 24,0 9,2 12 6 17 9 S 1014,8 19 60 0,0
15.08.2018 08:00:00 20,5 11,4 6 3 14 8 SSE 1015,4 16 12 -
15.08.2018 07:00:00 19,4 12,6 8 4 17 9 ESE 1015,5 11 0 0,0
15.08.2018 06:00:00 19,3 12,5 8 5 11 6 NW 1015,4 15 0 0,0
15.08.2018 05:00:00 20,0 12,7 9 5 14 7 N 1015,3 18 0 0,0
15.08.2018 04:00:00 21,3 11,6 11 6 23 12 W 1015,3 19 0 0,0
15.08.2018 03:00:00 22,2 10,3 16 9 22 12 WSW 1015,4 20 0 0,0
15.08.2018 02:00:00 23,1 6,8 15 8 21 11 WSW 1015,7 20 0 -
15.08.2018 01:00:00 23,7 5,6 9 5 14 8 W 1015,5 20 0 0,0
15.08.2018 00:00:00 24,7 5,5 9 5 17 9 WSW 1015,5 20 0 0,0
14.08.2018 23:00:00 25,9 5,0 12 6 25 14 SW 1015,3 20 0 0,0
14.08.2018 22:00:00 27,8 4,8 16 8 26 14 SSW 1014,0 20 0 0,0
14.08.2018 21:00:00 30,0 4,6 17 9 28 15 SSW 1013,0 20 51 0,0
14.08.2018 20:00:00 32,3 4,1 15 8 27 15 S 1012,2 20 60 -
14.08.2018 19:00:00 34,4 3,0 13 7 24 13 SSW 1011,9 20 60 0,0
14.08.2018 18:00:00 35,2 2,7 7 4 24 13 SW 1012,0 20 60 0,0
14.08.2018 17:00:00 35,1 2,5 8 4 29 16 W 1012,2 16 60 0,0
14.08.2018 16:00:00 34,5 3,0 12 6 26 14 SSW 1012,8 20 60 0,0
14.08.2018 15:00:00 33,6 2,5 11 6 28 15 S 1013,3 20 60 0,0
14.08.2018 14:00:00 32,8 6,1 12 6 28 15 SSE 1013,8 20 60 -
14.08.2018 13:00:00 30,9 7,4 13 7 29 16 S 1014,4 20 60 0,0
14.08.2018 12:00:00 29,3 7,3 17 9 28 15 SSW 1014,7 20 60 0,0
14.08.2018 11:00:00 28,0 6,1 4 2 9 5 ESE 1014,8 19 60 0,0
14.08.2018 10:00:00 24,8 7,0 4 2 10 5 ENE 1015,2 20 60 0,0
14.08.2018 09:00:00 23,1 8,0 1 1 9 5 NE 1015,3 8 60 0,0
14.08.2018 08:00:00 18,2 8,1 8 4 14 7 WSW 1016,2 20 18 -
14.08.2018 07:00:00 17,8 10,2 8 4 13 7 W 1015,9 19 0 0,0
14.08.2018 06:00:00 17,1 9,8 4 2 16 8 W 1015,9 20 0 0,0
14.08.2018 05:00:00 17,6 9,4 8 4 13 7 WSW 1015,9 20 0 0,0
14.08.2018 04:00:00 18,4 9,4 9 5 14 7 WSW 1015,8 20 0 0,0
14.08.2018 03:00:00 18,7 9,4 6 4 16 9 WNW 1016,0 20 0 0,0
14.08.2018 02:00:00 20,0 8,4 6 4 18 10 WNW 1015,8 13 0 -
14.08.2018 01:00:00 21,4 7,6 12 6 20 11 NNW 1015,3 20 0 0,0
14.08.2018 00:00:00 22,9 6,2 13 7 29 15 N 1014,7 7 0 0,0
13.08.2018 23:00:00 24,6 5,3 20 11 32 18 N 1013,7 20 0 0,0
13.08.2018 22:00:00 25,7 5,3 14 7 21 11 WNW 1012,7 18 0 0,0
13.08.2018 21:00:00 28,3 3,9 16 8 25 13 WNW 1011,7 20 53 0,0
13.08.2018 20:00:00 30,8 1,1 19 10 28 15 WNW 1011,0 20 60 -
13.08.2018 19:00:00 32,2 -0,7 17 9 34 18 NW 1010,8 14 60 0,0
13.08.2018 18:00:00 32,9 2,9 14 7 33 18 WNW 1010,8 15 60 0,0
13.08.2018 17:00:00 33,1 5,6 16 8 35 19 NNW 1011,0 20 60 0,0

tt = Température de l'air
td = dewpoint
ff = Vitesse du vent
fx = gusts
dd = Direction du vent
ppp = reduced air pressure
vv = visibility
sd = Ensoleillement
rr = Quantités de précipitations

stations d'obs. à proximité